GW0637 Weather Reports


Display with metric or nautical units.
time (UTC)temp
F
wind
direction
speed
MPH
gust
MPH
rain 1hr
in
rain 24hr
in
rain mn
in
humidity
%
barometer
mb
20260904234703 71 313 13.0 20.0 0.00 0.00 0.00 34 1012.3
20260904234159 71 335 15.0 20.0 0.00 0.00 0.00 35 1012.5
20260904233655 71 258 17.0 22.0 0.00 0.00 0.00 34 1012.5
20260904233150 71 320 14.0 17.0 0.00 0.00 0.00 34 1012.3
20260904232647 71 305 15.0 23.0 0.00 0.00 0.00 34 1012.3
20260904232143 70 294 8.0 21.0 0.00 0.00 0.00 35 1012.3
20260904231638 71 6 15.0 18.0 0.00 0.00 0.00 34 1012.3
20260904231133 71 305 12.0 17.0 0.00 0.00 0.00 34 1012.3
20260904230632 70 311 11.0 21.0 0.00 0.00 0.00 35 1011.9
20260904230128 70 351 15.0 20.0 0.00 0.00 0.00 35 1012.2
20260904225625 71 308 16.0 23.0 0.00 0.00 0.00 34 1012.1
20260904225120 71 343 15.0 23.0 0.00 0.00 0.00 35 1012.0
20260904224615 71 315 15.0 18.0 0.00 0.00 0.00 35 1011.8
20260904224110 72 307 18.0 22.0 0.00 0.00 0.00 34 1011.7
20260904223609 71 324 8.0 17.0 0.00 0.00 0.00 34 1011.7
20260904223104 71 290 13.0 22.0 0.00 0.00 0.00 34 1011.7
20260904222600 71 302 10.0 21.0 0.00 0.00 0.00 34 1011.7
20260904222050 72 338 11.0 20.0 0.00 0.00 0.00 34 1011.9
20260904221550 71 321 13.0 20.0 0.00 0.00 0.00 34 1011.5
20260904221044 71 280 12.0 23.0 0.00 0.00 0.00 34 1011.5
20260904220543 71 300 12.0 20.0 0.00 0.00 0.00 34 1011.3
20260904220039 72 315 16.0 21.0 0.00 0.00 0.00 33 1011.1
20260904215534 72 295 10.0 16.0 0.00 0.00 0.00 34 1011.2
20260904215030 72 288 15.0 23.0 0.00 0.00 0.00 34 1011.0
20260904214525 71 349 15.0 21.0 0.00 0.00 0.00 34 1011.2
20260904214021 72 333 12.0 17.0 0.00 0.00 0.00 35 1011.1
20260904213518 70 313 14.0 18.0 0.00 0.00 0.00 36 1011.2
20260904213015 68 283 8.0 15.0 0.00 0.00 0.00 37 1010.9
20260904212514 67 340 12.0 18.0 0.00 0.00 0.00 39 1011.0
20260904212009 67 3 11.0 20.0 0.00 0.00 0.00 40 1011.0
20260904211504 66 318 11.0 18.0 0.00 0.00 0.00 41 1010.8
20260904210959 66 319 12.0 20.0 0.00 0.00 0.00 41 1010.8
20260904210458 66 298 12.0 23.0 0.00 0.00 0.00 41 1010.9
20260904205954 66 288 10.0 16.0 0.00 0.00 0.00 41 1010.8
20260904205450 66 323 15.0 21.0 0.00 0.00 0.00 41 1011.1
20260904204947 66 295 11.0 21.0 0.00 0.00 0.00 41 1010.8
20260904204443 67 294 13.0 21.0 0.00 0.00 0.00 40 1010.4
20260904203939 66 331 17.0 23.0 0.00 0.00 0.00 41 1010.7
20260904203435 67 333 14.0 23.0 0.00 0.00 0.00 41 1010.7
20260904202930 67 297 18.0 24.0 0.00 0.00 0.00 41 1010.7
20260904202426 67 311 16.0 22.0 0.00 0.00 0.00 40 1010.4
20260904201922 68 308 12.0 22.0 0.00 0.00 0.00 40 1010.3
20260904201417 68 308 14.0 18.0 0.00 0.00 0.00 41 1010.3
20260904200912 67 304 15.0 21.0 0.00 0.00 0.00 41 1010.3
20260904200405 66 318 10.0 21.0 0.00 0.00 0.00 42 1010.1
20260904195900 67 316 15.0 21.0 0.00 0.00 0.00 42 1010.0
20260904195358 66 313 13.0 20.0 0.00 0.00 0.00 42 1009.9
20260904194853 67 317 13.0 21.0 0.00 0.00 0.00 42 1009.8
20260904194352 66 323 16.0 22.0 0.00 0.00 0.00 42 1009.8
20260904193848 66 292 14.0 21.0 0.00 0.00 0.00 42 1009.8
20260904193343 66 306 11.0 20.0 0.00 0.00 0.00 44 1009.6
20260904192838 65 286 13.0 21.0 0.00 0.00 0.00 45 1009.7
20260904192333 67 309 8.0 18.0 0.00 0.00 0.00 44 1009.8
20260904191830 66 320 10.0 17.0 0.00 0.00 0.00 44 1009.6
20260904191326 67 271 10.0 13.0 0.00 0.00 0.00 43 1009.3
20260904190823 67 288 9.0 18.0 0.00 0.00 0.00 44 1009.1
20260904190318 67 284 8.0 15.0 0.00 0.00 0.00 43 1009.5
20260904185814 65 346 12.0 17.0 0.00 0.00 0.00 45 1009.5
20260904185310 66 320 10.0 14.0 0.00 0.00 0.00 45 1009.2
20260904184809 65 272 9.0 13.0 0.00 0.00 0.00 45 1009.2
20260904184304 64 321 8.0 15.0 0.00 0.00 0.00 47 1009.3
20260904183759 64 304 11.0 15.0 0.00 0.00 0.00 46 1009.1
20260904183254 64 304 11.0 14.0 0.00 0.00 0.00 46 1009.1
20260904182749 65 290 7.0 14.0 0.00 0.00 0.00 46 1009.2
20260904182244 65 315 8.0 14.0 0.00 0.00 0.00 45 1009.1
20260904181740 65 308 9.0 13.0 0.00 0.00 0.00 45 1009.2
20260904181240 65 292 11.0 15.0 0.00 0.00 0.00 44 1009.0
20260904180735 65 323 9.0 14.0 0.00 0.00 0.00 45 1008.9
20260904180230 65 315 8.0 14.0 0.00 0.00 0.00 45 1009.0
20260904175729 64 298 9.0 13.0 0.00 0.00 0.00 46 1009.1
20260904175228 64 333 9.0 11.0 0.00 0.00 0.00 47 1009.2
20260904174723 64 316 11.0 13.0 0.00 0.00 0.00 46 1008.9
20260904174219 64 308 7.0 14.0 0.00 0.00 0.00 47 1009.0
20260904173715 64 303 12.0 15.0 0.00 0.00 0.00 48 1009.1
20260904173214 65 325 10.0 15.0 0.00 0.00 0.00 46 1008.9
20260904172712 65 329 7.0 13.0 0.00 0.00 0.00 46 1008.8
20260904172210 66 332 9.0 17.0 0.00 0.00 0.00 47 1008.8
20260904171706 67 283 12.0 14.0 0.00 0.00 0.00 44 1008.7
20260904171201 67 331 7.0 9.0 0.00 0.00 0.00 45 1008.6
20260904170657 68 293 7.0 11.0 0.00 0.00 0.00 44 1008.2
20260904170152 68 359 0.0 0.0 0.00 0.00 0.00 42 1008.2
20260904165651 68 349 3.0 8.0 0.00 0.00 0.00 43 1008.5
20260904165151 68 341 0.0 0.0 0.00 0.00 0.00 41 1008.0
20260904164646 67 336 0.0 5.0 0.00 0.00 0.00 42 1008.4
20260904164141 67 320 0.0 0.0 0.00 0.00 0.00 42 1008.4
20260904163636 67 278 4.0 5.0 0.00 0.00 0.00 43 1008.1
20260904163131 66 278 0.0 0.0 0.00 0.00 0.00 43 1008.5
20260904162625 66 323 0.0 3.0 0.00 0.00 0.00 43 1008.4
20260904162120 66 310 1.0 5.0 0.00 0.00 0.00 43 1008.4
20260904161616 66 234 0.0 0.0 0.00 0.00 0.00 45 1008.2
20260904161111 65 231 0.0 0.0 0.00 0.00 0.00 45 1008.2
20260904160607 66 171 0.0 0.0 0.00 0.00 0.00 44 1008.0
20260904155602 65 83 1.0 2.0 0.00 0.00 0.00 44 1007.6
20260904155055 64 91 3.0 7.0 0.00 0.00 0.00 44 1007.3
20260904154549 65 52 0.0 5.0 0.00 0.00 0.00 44 1007.3
20260904154039 64 95 0.0 0.0 0.00 0.00 0.00 45 1007.3
20260904153538 64 95 0.0 3.0 0.00 0.00 0.00 46 1007.3
20260904153035 64 97 0.0 2.0 0.00 0.00 0.00 45 1007.3
20260904152530 64 100 3.0 3.0 0.00 0.00 0.00 44 1007.3
20260904152026 64 85 1.0 1.0 0.00 0.00 0.00 45 1007.5
20260904151520 63 30 0.0 0.0 0.00 0.00 0.00 46 1007.5
20260904151014 64 113 0.0 0.0 0.00 0.00 0.00 44 1007.4
20260904150514 64 106 0.0 0.0 0.00 0.00 0.00 44 1007.3
20260904150009 63 96 0.0 0.0 0.00 0.00 0.00 45 1007.3
20260904145503 62 327 0.0 0.0 0.00 0.00 0.00 49 1007.3
20260904144958 61 48 0.0 0.0 0.00 0.00 0.00 49 1007.6
20260904144454 60 7 0.0 0.0 0.00 0.00 0.00 51 1007.4
20260904143950 60 215 0.0 1.0 0.00 0.00 0.00 52 1007.7
20260904143446 60 78 0.0 0.0 0.00 0.00 0.00 52 1007.6
20260904142943 59 87 0.0 0.0 0.00 0.00 0.00 52 1007.5
20260904142439 59 72 0.0 0.0 0.00 0.00 0.00 52 1007.5
20260904141938 58 33 0.0 3.0 0.00 0.00 0.00 55 1007.6
20260904141434 57 327 5.0 8.0 0.00 0.00 0.00 57 1007.5
20260904140931 56 288 0.0 0.0 0.00 0.00 0.00 63 1007.6
20260904140430 54 23 0.0 0.0 0.00 0.00 0.00 62 1007.1
20260904135929 53 306 0.0 0.0 0.00 0.00 0.00 64 1007.6
20260904135429 53 318 0.0 0.0 0.00 0.00 0.00 66 1007.5
20260904134925 53 0 0.0 0.0 0.00 0.00 0.00 65 1007.4
20260904134425 52 299 0.0 0.0 0.00 0.00 0.00 66 1007.4
20260904133919 51 297 0.0 0.0 0.00 0.00 0.00 66 1007.5
20260904133415 53 324 0.0 1.0 0.00 0.00 0.00 65 1007.8
20260904132910 53 5 3.0 5.0 0.00 0.00 0.00 61 1007.3
20260904132405 52 8 0.0 0.0 0.00 0.00 0.00 63 1007.3
20260904131905 51 349 0.0 0.0 0.00 0.00 0.00 65 1007.6
20260904131400 52 346 0.0 0.0 0.00 0.00 0.00 63 1007.3
20260904130855 54 348 0.0 0.0 0.00 0.00 0.00 60 1007.5
20260904130355 54 0 0.0 2.0 0.00 0.00 0.00 60 1007.1
20260904125849 54 10 0.0 0.0 0.00 0.00 0.00 60 1007.1
20260904125346 54 14 0.0 5.0 0.00 0.00 0.00 59 1007.3
20260904124845 54 25 3.0 5.0 0.00 0.00 0.00 60 1007.0
20260904124342 53 36 1.0 6.0 0.00 0.00 0.00 60 1007.0
20260904123837 52 5 3.0 5.0 0.00 0.00 0.00 62 1006.9
20260904123332 52 340 0.0 0.0 0.00 0.00 0.00 65 1007.1
20260904122827 51 344 0.0 0.0 0.00 0.00 0.00 66 1007.3
20260904122327 52 24 0.0 0.0 0.00 0.00 0.00 65 1007.3
20260904121822 52 20 0.0 0.0 0.00 0.00 0.00 62 1007.1
20260904121318 52 7 0.0 0.0 0.00 0.00 0.00 63 1007.3
20260904120814 52 345 0.0 0.0 0.00 0.00 0.00 65 1007.6
20260904120309 53 357 0.0 0.0 0.00 0.00 0.00 64 1007.1
20260904115804 53 90 0.0 0.0 0.00 0.00 0.00 61 1007.3
20260904115300 54 83 0.0 0.0 0.00 0.00 0.00 60 1007.1
20260904114754 54 78 0.0 0.0 0.00 0.00 0.00 59 1007.1
20260904114254 55 68 0.0 0.0 0.00 0.00 0.00 59 1007.4
20260904113749 54 48 0.0 0.0 0.00 0.00 0.00 58 1007.1
20260904113248 54 21 0.0 0.0 0.00 0.00 0.00 60 1007.1
20260904112743 54 337 0.0 0.0 0.00 0.00 0.00 61 1007.3
20260904112239 54 20 0.0 0.0 0.00 0.00 0.00 60 1007.4
20260904111735 53 20 0.0 0.0 0.00 0.00 0.00 61 1007.1
20260904111231 52 355 0.0 0.0 0.00 0.00 0.00 65 1007.3
20260904110726 51 320 0.0 0.0 0.00 0.00 0.00 66 1007.1
20260904110225 51 258 0.0 0.0 0.00 0.00 0.00 66 1007.6
20260904105720 51 326 0.0 0.0 0.00 0.00 0.00 66 1007.5
20260904105214 51 321 0.0 0.0 0.00 0.00 0.00 69 1007.5
20260904104710 51 298 0.0 0.0 0.00 0.00 0.00 67 1007.3
20260904104206 51 333 0.0 0.0 0.00 0.00 0.00 68 1007.7
20260904103702 50 330 0.0 0.0 0.00 0.00 0.00 68 1007.6
20260904103157 49 317 0.0 0.0 0.00 0.00 0.00 70 1007.8
20260904102653 49 331 0.0 0.0 0.00 0.00 0.00 70 1007.7
20260904102148 49 316 0.0 0.0 0.00 0.00 0.00 69 1007.8
20260904101645 49 309 0.0 0.0 0.00 0.00 0.00 70 1007.7
20260904101140 49 320 0.0 0.0 0.00 0.00 0.00 69 1008.0
20260904100636 48 322 0.0 0.0 0.00 0.00 0.00 72 1007.9
20260904100131 48 317 0.0 0.0 0.00 0.00 0.00 72 1007.9
20260904095625 47 348 0.0 2.0 0.00 0.00 0.00 72 1008.0
20260904095120 47 318 0.0 0.0 0.00 0.00 0.00 72 1008.1
20260904094615 47 327 0.0 0.0 0.00 0.00 0.00 72 1008.0
20260904094110 47 346 0.0 0.0 0.00 0.00 0.00 73 1008.0
20260904093607 47 334 0.0 0.0 0.00 0.00 0.00 73 1008.0
20260904093107 47 326 0.0 0.0 0.00 0.00 0.00 73 1007.9
20260904092603 47 291 0.0 0.0 0.00 0.00 0.00 74 1008.2
20260904092059 47 307 0.0 0.0 0.00 0.00 0.00 73 1008.1
20260904091555 48 340 0.0 0.0 0.00 0.00 0.00 69 1008.2
20260904091054 48 346 0.0 0.0 0.00 0.00 0.00 69 1008.0
20260904090550 48 346 0.0 0.0 0.00 0.00 0.00 70 1008.5
20260904090045 49 261 0.0 0.0 0.00 0.00 0.00 71 1008.8
20260904085540 49 261 0.0 0.0 0.00 0.00 0.00 69 1008.5
20260904085040 50 262 0.0 0.0 0.00 0.00 0.00 68 1008.6
20260904084536 49 264 0.0 0.0 0.00 0.00 0.00 67 1008.6
20260904084032 49 268 0.0 0.0 0.00 0.00 0.00 69 1008.5
20260904083527 49 271 0.0 0.0 0.00 0.00 0.00 69 1008.6
20260904083023 49 276 0.0 0.0 0.00 0.00 0.00 69 1008.7
20260904082518 49 299 0.0 0.0 0.00 0.00 0.00 68 1008.7
20260904082013 50 333 0.0 0.0 0.00 0.00 0.00 67 1008.4
20260904081508 50 330 0.0 0.0 0.00 0.00 0.00 66 1008.6
20260904081004 51 313 0.0 0.0 0.00 0.00 0.00 65 1008.6
20260904080459 51 317 0.0 0.0 0.00 0.00 0.00 64 1008.8
20260904075955 52 307 0.0 0.0 0.00 0.00 0.00 65 1008.9
20260904075451 53 278 0.0 0.0 0.00 0.00 0.00 64 1008.9
20260904074950 53 274 0.0 0.0 0.00 0.00 0.00 62 1008.9
20260904074445 53 276 0.0 0.0 0.00 0.00 0.00 66 1008.8
20260904073940 54 285 0.0 0.0 0.00 0.00 0.00 63 1008.8
20260904073436 54 285 0.0 0.0 0.00 0.00 0.00 61 1008.8
20260904072931 54 285 0.0 0.0 0.00 0.00 0.00 61 1008.8
20260904072426 53 287 0.0 0.0 0.00 0.00 0.00 63 1008.9
20260904071921 53 305 0.0 0.0 0.00 0.00 0.00 66 1008.9
20260904071417 53 306 0.0 0.0 0.00 0.00 0.00 64 1009.0
20260904070911 53 317 0.0 0.0 0.00 0.00 0.00 67 1008.7
20260904070411 53 323 0.0 0.0 0.00 0.00 0.00 64 1009.1
20260904065910 53 323 0.0 0.0 0.00 0.00 0.00 64 1008.8
20260904065407 54 325 0.0 0.0 0.00 0.00 0.00 63 1008.8
20260904064906 53 325 0.0 0.0 0.00 0.00 0.00 65 1009.1
20260904064403 53 327 0.0 0.0 0.00 0.00 0.00 66 1008.9
20260904063858 53 331 0.0 0.0 0.00 0.00 0.00 66 1008.9
20260904063355 52 313 0.0 0.0 0.00 0.00 0.00 68 1008.9
20260904062849 51 332 0.0 0.0 0.00 0.00 0.00 68 1008.9
20260904062345 51 330 0.0 0.0 0.00 0.00 0.00 68 1009.0
20260904061841 51 328 0.0 0.0 0.00 0.00 0.00 69 1008.8
20260904061337 51 320 0.0 0.0 0.00 0.00 0.00 67 1008.9
20260904060833 51 314 0.0 0.0 0.00 0.00 0.00 68 1009.0
20260904060329 51 333 0.0 0.0 0.00 0.00 0.00 68 1009.1
20260904055824 51 316 0.0 0.0 0.00 0.00 0.00 67 1009.1
20260904055319 51 352 0.0 0.0 0.00 0.00 0.00 67 1009.1
20260904054814 53 345 0.0 0.0 0.00 0.00 0.00 65 1008.9
20260904054310 53 319 0.0 0.0 0.00 0.00 0.00 65 1009.2
20260904053800 53 347 0.0 0.0 0.00 0.00 0.00 63 1009.3
20260904053259 53 324 0.0 0.0 0.00 0.00 0.00 63 1009.3
20260904052756 52 307 0.0 0.0 0.00 0.00 0.00 64 1009.6
20260904052252 52 313 0.0 0.0 0.00 0.00 0.00 65 1009.6
20260904051748 52 318 0.0 0.0 0.00 0.00 0.00 64 1009.7
20260904051243 52 306 0.0 0.0 0.00 0.00 0.00 67 1009.6
20260904050738 52 306 0.0 0.0 0.00 0.00 0.00 63 1009.7
20260904050234 52 306 0.0 0.0 0.00 0.00 0.00 64 1009.6
20260904045729 51 305 0.0 0.0 0.00 0.00 0.00 66 1009.5
20260904045224 51 306 0.0 0.0 0.00 0.00 0.00 69 1009.5
20260904044719 51 305 0.0 0.0 0.00 0.00 0.00 65 1009.1
20260904044215 51 305 0.0 0.0 0.00 0.00 0.00 65 1009.2
20260904043711 51 306 0.0 0.0 0.00 0.00 0.00 66 1009.5
20260904043207 51 308 0.0 0.0 0.00 0.00 0.00 65 1009.1
20260904042703 52 312 0.0 1.0 0.00 0.00 0.00 62 1009.3
20260904042159 52 311 0.0 0.0 0.00 0.00 0.00 62 1009.2
20260904041653 51 358 0.0 0.0 0.00 0.00 0.00 63 1009.1
20260904041150 51 13 0.0 0.0 0.00 0.00 0.00 65 1009.0
20260904040645 51 352 0.0 0.0 0.00 0.00 0.00 65 1008.8
20260904040141 51 346 0.0 0.0 0.00 0.00 0.00 64 1009.0
20260904035637 51 357 0.0 0.0 0.00 0.00 0.00 63 1009.1
20260904035137 50 12 0.0 0.0 0.00 0.00 0.00 65 1009.2
20260904034636 51 348 0.0 0.0 0.00 0.00 0.00 64 1009.2
20260904034132 51 338 0.0 0.0 0.00 0.00 0.00 63 1009.2
20260904033627 51 318 0.0 0.0 0.00 0.00 0.00 65 1009.3
20260904033125 51 315 0.0 0.0 0.00 0.00 0.00 64 1009.1
20260904032620 50 331 0.0 0.0 0.00 0.00 0.00 64 1009.3
20260904032119 52 350 0.0 0.0 0.00 0.00 0.00 61 1009.1
20260904031618 52 343 0.0 0.0 0.00 0.00 0.00 61 1009.5
20260904031114 52 351 0.0 0.0 0.00 0.00 0.00 60 1009.1
20260904030610 52 347 0.0 3.0 0.00 0.00 0.00 61 1009.2
20260904030105 53 352 0.0 0.0 0.00 0.00 0.00 60 1008.9
20260904025601 53 337 0.0 0.0 0.00 0.00 0.00 58 1009.2
20260904025056 52 336 0.0 0.0 0.00 0.00 0.00 60 1008.9
20260904024551 52 341 0.0 0.0 0.00 0.00 0.00 60 1008.9
20260904024047 53 342 0.0 0.0 0.00 0.00 0.00 58 1008.9
20260904023543 54 348 0.0 0.0 0.00 0.00 0.00 56 1009.0
20260904023038 54 353 0.0 0.0 0.00 0.00 0.00 56 1008.9
20260904022533 55 342 0.0 0.0 0.00 0.00 0.00 53 1008.8
20260904022030 57 347 0.0 0.0 0.00 0.00 0.00 51 1008.8
20260904021525 58 9 0.0 0.0 0.00 0.00 0.00 48 1009.0
20260904021021 60 20 0.0 0.0 0.00 0.00 0.00 46 1008.7
20260904020521 62 29 0.0 0.0 0.00 0.00 0.00 44 1008.7
20260904020015 62 15 0.0 0.0 0.00 0.00 0.00 44 1008.6
20260904015510 63 324 0.0 0.0 0.00 0.00 0.00 43 1008.5
20260904015009 64 308 3.0 5.0 0.00 0.00 0.00 42 1008.7
20260904014503 64 296 5.0 7.0 0.00 0.00 0.00 41 1008.6
20260904013959 65 296 3.0 7.0 0.00 0.00 0.00 40 1008.7
20260904013455 65 278 5.0 8.0 0.00 0.00 0.00 40 1008.7
20260904012951 66 291 6.0 9.0 0.00 0.00 0.00 39 1008.6
20260904012451 67 303 5.0 8.0 0.00 0.00 0.00 38 1008.6
20260904011945 68 295 3.0 8.0 0.00 0.00 0.00 38 1008.5
20260904011440 68 337 4.0 8.0 0.00 0.00 0.00 37 1008.4
20260904010935 69 274 4.0 10.0 0.00 0.00 0.00 36 1008.4
20260904010431 69 291 6.0 9.0 0.00 0.00 0.00 36 1008.4
20260904005926 69 268 5.0 14.0 0.00 0.00 0.00 35 1008.2
20260904005421 70 280 10.0 11.0 0.00 0.00 0.00 35 1008.2
20260904004916 70 296 11.0 14.0 0.00 0.00 0.00 34 1008.2
20260904004413 70 311 7.0 9.0 0.00 0.00 0.00 34 1008.0
20260904003912 70 287 7.0 18.0 0.00 0.00 0.00 34 1008.1
20260904003403 71 288 7.0 14.0 0.00 0.00 0.00 34 1008.0
20260904002857 70 277 5.0 10.0 0.00 0.00 0.00 35 1008.2
20260904002354 71 299 8.0 13.0 0.00 0.00 0.00 35 1008.2
20260904001853 71 276 7.0 14.0 0.00 0.00 0.00 35 1008.2
20260904001349 71 274 6.0 10.0 0.00 0.00 0.00 35 1008.0
20260904000843 72 270 0.0 8.0 0.00 0.00 0.00 35 1007.9
20260904000342 72 265 4.0 11.0 0.00 0.00 0.00 34 1007.8
20260903235842 72 320 7.0 17.0 0.00 0.00 0.00 35 1007.9
20260903235339 72 257 12.0 15.0 0.00 0.00 0.00 35 1008.0
20260903234838 72 285 11.0 21.0 0.00 0.00 0.00 35 1007.7